GAOFEN-12 04

Last updated on Fri Jul 11 2025 00:02:29 GMT+0000 (Coordinated Universal Time)

1 57654U 23123A 25191.58754370 .00000713 00000+0 99424-4 0 9997 2 57654 97.9095 109.6825 0002343 61.0443 299.1004 14.80705458102100
UTC large
Height (km)
Speed (km/s)
/
Latitude / Longitude
Inclination (degrees)
Orbital Period (minutes)
Azimuth
Elevation
Range (km)
Doppler Factor

Next 0 passes for location: London (51.5072 / 0.1276)

Sorry there are no passes over London.